Year,Month,Day,Hour,Minute,Value (Times are PST for temperature in C)
2018,04,10,00,00,8.40
2018,04,10,00,02,8.30
2018,04,10,00,03,8.30
2018,04,10,00,04,8.30
2018,04,10,00,05,8.30
2018,04,10,00,06,8.30
2018,04,10,00,08,8.30
2018,04,10,00,09,8.20
2018,04,10,00,10,8.20
2018,04,10,00,11,8.20
2018,04,10,00,12,8.20
2018,04,10,00,14,8.10
2018,04,10,00,15,8.10
2018,04,10,00,16,8.10
2018,04,10,00,17,8.10
2018,04,10,00,19,8.00
2018,04,10,00,20,8.00
2018,04,10,00,21,7.90
2018,04,10,00,22,7.90
2018,04,10,00,23,7.90
2018,04,10,00,24,7.90
2018,04,10,00,26,7.90
2018,04,10,00,27,7.90
2018,04,10,00,28,7.80
2018,04,10,00,29,7.80
2018,04,10,00,32,7.80
2018,04,10,00,33,7.80
2018,04,10,00,34,7.70
2018,04,10,00,36,7.70
2018,04,10,00,37,7.70
2018,04,10,00,38,7.70
2018,04,10,00,39,7.70
2018,04,10,00,41,7.70
2018,04,10,00,42,7.60
2018,04,10,00,43,7.60
2018,04,10,00,44,7.60
2018,04,10,00,45,7.60
2018,04,10,00,47,7.60
2018,04,10,00,48,7.50
2018,04,10,00,49,7.50
2018,04,10,00,50,7.40
2018,04,10,00,53,7.40
2018,04,10,00,54,7.40
2018,04,10,00,55,7.30
2018,04,10,00,58,7.30
2018,04,10,00,59,7.30
2018,04,10,01,00,7.30
2018,04,10,01,01,7.30
2018,04,10,01,03,7.30
2018,04,10,01,04,7.20
2018,04,10,01,06,7.20
2018,04,10,01,07,7.20
2018,04,10,01,08,7.20
2018,04,10,01,10,7.20
2018,04,10,01,11,7.10
2018,04,10,01,12,7.10
2018,04,10,01,13,7.10
2018,04,10,01,14,7.10
2018,04,10,01,15,7.10
2018,04,10,01,16,7.00
2018,04,10,01,18,7.00
2018,04,10,01,19,7.00
2018,04,10,01,20,6.90
2018,04,10,01,21,6.90
2018,04,10,01,22,6.90
2018,04,10,01,23,6.90
2018,04,10,01,26,6.90
2018,04,10,01,27,6.90
2018,04,10,01,29,6.90
2018,04,10,01,30,6.90
2018,04,10,01,31,6.90
2018,04,10,01,32,6.90
2018,04,10,01,34,6.80
2018,04,10,01,36,6.80
2018,04,10,01,37,6.80
2018,04,10,01,38,6.80
2018,04,10,01,40,6.80
2018,04,10,01,41,6.80
2018,04,10,01,44,6.80
2018,04,10,01,45,6.80
2018,04,10,01,47,6.80
2018,04,10,01,48,6.80
2018,04,10,01,50,6.70
2018,04,10,01,51,6.70
2018,04,10,01,53,6.70
2018,04,10,01,54,6.70
2018,04,10,01,55,6.70
2018,04,10,01,57,6.70
2018,04,10,01,58,6.70
2018,04,10,01,59,6.70
2018,04,10,02,01,6.70
2018,04,10,02,02,6.70
2018,04,10,02,03,6.70
2018,04,10,02,05,6.70
2018,04,10,02,06,6.60
2018,04,10,02,07,6.60
2018,04,10,02,10,6.60
2018,04,10,02,11,6.60
2018,04,10,02,12,6.60
2018,04,10,02,13,6.60
2018,04,10,02,15,6.60
2018,04,10,02,16,6.60
2018,04,10,02,17,6.60
2018,04,10,02,19,6.60
2018,04,10,02,20,6.50
2018,04,10,02,21,6.50
2018,04,10,02,22,6.50
2018,04,10,02,24,6.50
2018,04,10,02,25,6.50
2018,04,10,02,26,6.60
2018,04,10,02,27,6.60
2018,04,10,02,29,6.60
2018,04,10,02,30,6.60
2018,04,10,02,31,6.60
2018,04,10,02,33,6.60
2018,04,10,02,35,6.50
2018,04,10,02,36,6.60
2018,04,10,02,37,6.50
2018,04,10,02,38,6.50
2018,04,10,02,41,6.50
2018,04,10,02,42,6.50
2018,04,10,02,43,6.50
2018,04,10,02,44,6.50
2018,04,10,02,46,6.50
2018,04,10,02,47,6.60
2018,04,10,02,50,6.50
2018,04,10,02,51,6.60
2018,04,10,02,52,6.60
2018,04,10,02,54,6.60
2018,04,10,02,55,6.60
2018,04,10,02,56,6.60
2018,04,10,02,57,6.60
2018,04,10,02,59,6.60
2018,04,10,03,00,6.60
2018,04,10,03,01,6.60
2018,04,10,03,02,6.60
2018,04,10,03,04,6.60
2018,04,10,03,05,6.60
2018,04,10,03,07,6.60
2018,04,10,03,08,6.70
2018,04,10,03,09,6.70
2018,04,10,03,10,6.70
2018,04,10,03,12,6.70
2018,04,10,03,13,6.70
2018,04,10,03,15,6.70
2018,04,10,03,16,6.60
2018,04,10,03,18,6.70
2018,04,10,03,20,6.60
2018,04,10,03,21,6.60
2018,04,10,03,22,6.60
2018,04,10,03,23,6.60
2018,04,10,03,25,6.60
2018,04,10,03,27,6.60
2018,04,10,03,28,6.60
2018,04,10,03,29,6.60
2018,04,10,03,30,6.60
2018,04,10,03,32,6.60
2018,04,10,03,33,6.60
2018,04,10,03,34,6.60
2018,04,10,03,35,6.60
2018,04,10,03,37,6.50
2018,04,10,03,38,6.60
2018,04,10,03,39,6.60
2018,04,10,03,40,6.60
2018,04,10,03,42,6.60
2018,04,10,03,44,6.60
2018,04,10,03,45,6.60
2018,04,10,03,46,6.60
2018,04,10,03,48,6.60
2018,04,10,03,49,6.60
2018,04,10,03,50,6.60
2018,04,10,03,51,6.60
2018,04,10,03,52,6.60
2018,04,10,03,54,6.60
2018,04,10,03,56,6.60
2018,04,10,03,57,6.60
2018,04,10,03,58,6.60
2018,04,10,03,59,6.60
2018,04,10,04,00,6.60
2018,04,10,04,01,6.60
2018,04,10,04,02,6.60
2018,04,10,04,03,6.60
2018,04,10,04,05,6.60
2018,04,10,04,06,6.60
2018,04,10,04,07,6.60
2018,04,10,04,09,6.60
2018,04,10,04,10,6.60
2018,04,10,04,12,6.60
2018,04,10,04,13,6.60
2018,04,10,04,14,6.60
2018,04,10,04,15,6.60
2018,04,10,04,17,6.60
2018,04,10,04,18,6.60
2018,04,10,04,19,6.60
2018,04,10,04,21,6.60
2018,04,10,04,22,6.60
2018,04,10,04,23,6.60
2018,04,10,04,24,6.60
2018,04,10,04,25,6.60
2018,04,10,04,26,6.60
2018,04,10,04,27,6.60
2018,04,10,04,28,6.60
2018,04,10,04,30,6.60
2018,04,10,04,32,6.60
2018,04,10,04,34,6.60
2018,04,10,04,35,6.60
2018,04,10,04,36,6.60
2018,04,10,04,37,6.60
2018,04,10,04,38,6.60
2018,04,10,04,40,6.60
2018,04,10,04,41,6.60
2018,04,10,04,43,6.60
2018,04,10,04,44,6.60
2018,04,10,04,45,6.60
2018,04,10,04,46,6.60
2018,04,10,04,47,6.60
2018,04,10,04,48,6.60
2018,04,10,04,49,6.60
2018,04,10,04,50,6.60
2018,04,10,04,51,6.60
2018,04,10,04,53,6.60
2018,04,10,04,54,6.60
2018,04,10,04,55,6.60
2018,04,10,04,56,6.70
2018,04,10,04,57,6.70
2018,04,10,04,58,6.70
2018,04,10,05,00,6.70
2018,04,10,05,01,6.70
2018,04,10,05,03,6.70
2018,04,10,05,04,6.70
2018,04,10,05,05,6.70
2018,04,10,05,06,6.70
2018,04,10,05,07,6.70
2018,04,10,05,08,6.60
2018,04,10,05,09,6.60
2018,04,10,05,10,6.60
2018,04,10,05,11,6.60
2018,04,10,05,12,6.60
2018,04,10,05,13,6.60
2018,04,10,05,15,6.60
2018,04,10,05,16,6.60
2018,04,10,05,18,6.60
2018,04,10,05,19,6.70
2018,04,10,05,20,6.70
2018,04,10,05,21,6.70
2018,04,10,05,22,6.70
2018,04,10,05,23,6.70
2018,04,10,05,24,6.70
2018,04,10,05,25,6.70
2018,04,10,05,26,6.70
2018,04,10,05,28,6.70
2018,04,10,05,29,6.70
2018,04,10,05,30,6.70
2018,04,10,05,31,6.70
2018,04,10,05,32,6.80
2018,04,10,05,33,6.80
2018,04,10,05,34,6.80
2018,04,10,05,35,6.80
2018,04,10,05,37,6.80
2018,04,10,05,38,6.80
2018,04,10,05,39,6.80
2018,04,10,05,40,6.80
2018,04,10,05,41,6.80
2018,04,10,05,42,6.80
2018,04,10,05,43,6.80
2018,04,10,05,44,6.80
2018,04,10,05,45,6.80
2018,04,10,05,46,6.80
2018,04,10,05,48,6.80
2018,04,10,05,49,6.90
2018,04,10,05,51,6.90
2018,04,10,05,52,6.90
2018,04,10,05,53,6.90
2018,04,10,05,54,6.90
2018,04,10,05,55,6.90
2018,04,10,05,56,6.90
2018,04,10,05,57,6.90
2018,04,10,05,59,6.90
2018,04,10,06,00,6.90
2018,04,10,06,02,6.90
2018,04,10,06,03,6.90
2018,04,10,06,04,6.90
2018,04,10,06,06,6.90
2018,04,10,06,07,6.90
2018,04,10,06,08,6.90
2018,04,10,06,09,6.90
2018,04,10,06,11,6.90
2018,04,10,06,12,6.90
2018,04,10,06,13,6.90
2018,04,10,06,15,6.90
2018,04,10,06,16,6.90
2018,04,10,06,17,6.90
2018,04,10,06,19,6.90
2018,04,10,06,20,6.90
2018,04,10,06,22,7.00
2018,04,10,06,23,7.00
2018,04,10,06,24,7.00
2018,04,10,06,25,7.00
2018,04,10,06,28,7.00
2018,04,10,06,29,7.00
2018,04,10,06,31,7.00
2018,04,10,06,32,7.00
2018,04,10,06,33,7.00
2018,04,10,06,34,7.00
2018,04,10,06,35,7.10
2018,04,10,06,37,7.10
2018,04,10,06,38,7.10
2018,04,10,06,39,7.10
2018,04,10,06,41,7.10
2018,04,10,06,42,7.10
2018,04,10,06,43,7.10
2018,04,10,06,44,7.10
2018,04,10,06,45,7.10
2018,04,10,06,46,7.10
2018,04,10,06,48,7.00
2018,04,10,06,49,7.00
2018,04,10,06,50,7.00
2018,04,10,06,51,7.00
2018,04,10,06,52,6.90
2018,04,10,06,54,6.90
2018,04,10,06,55,6.90
2018,04,10,06,56,6.90
2018,04,10,06,58,6.90
2018,04,10,06,59,6.90
2018,04,10,07,01,6.90
2018,04,10,07,02,6.90
2018,04,10,07,03,6.90
2018,04,10,07,04,6.90
2018,04,10,07,05,6.90
2018,04,10,07,06,6.90
2018,04,10,07,07,7.00
2018,04,10,07,08,7.00
2018,04,10,07,09,7.00
2018,04,10,07,11,7.00
2018,04,10,07,12,7.00
2018,04,10,07,15,7.10
2018,04,10,07,16,7.10
2018,04,10,07,18,7.20
2018,04,10,07,19,7.20
2018,04,10,07,20,7.20
2018,04,10,07,21,7.20
2018,04,10,07,22,7.20
2018,04,10,07,23,7.20
2018,04,10,07,24,7.20
2018,04,10,07,25,7.20
2018,04,10,07,26,7.20
2018,04,10,07,27,7.30
2018,04,10,07,28,7.30
2018,04,10,07,30,7.30
2018,04,10,07,31,7.30
2018,04,10,07,33,7.30
2018,04,10,07,34,7.40
2018,04,10,07,36,7.40
2018,04,10,07,37,7.40
2018,04,10,07,38,7.40
2018,04,10,07,39,7.50
2018,04,10,07,42,7.50
2018,04,10,07,43,7.60
2018,04,10,07,44,7.60
2018,04,10,07,46,7.60
2018,04,10,07,47,7.60
2018,04,10,07,48,7.60
2018,04,10,07,50,7.60
2018,04,10,07,51,7.70
2018,04,10,07,52,7.70
2018,04,10,07,53,7.70
2018,04,10,07,55,7.70
2018,04,10,07,56,7.70
2018,04,10,07,57,7.70
2018,04,10,07,59,7.70
2018,04,10,08,00,7.80
2018,04,10,08,01,7.70
2018,04,10,08,03,7.80
2018,04,10,08,04,7.80
2018,04,10,08,05,7.80
2018,04,10,08,06,7.80
2018,04,10,08,07,7.80
2018,04,10,08,09,7.80
2018,04,10,08,10,7.80
2018,04,10,08,11,7.80
2018,04,10,08,12,7.80
2018,04,10,08,13,7.90
2018,04,10,08,15,7.90
2018,04,10,08,16,7.90
2018,04,10,08,18,7.90
2018,04,10,08,19,7.90
2018,04,10,08,20,7.90
2018,04,10,08,21,7.90
2018,04,10,08,23,8.00
2018,04,10,08,24,8.10
2018,04,10,08,26,8.30
2018,04,10,08,27,8.30
2018,04,10,08,29,8.60
2018,04,10,08,30,8.60
2018,04,10,08,31,8.70
2018,04,10,08,32,8.90
2018,04,10,08,33,9.00
2018,04,10,08,34,9.10
2018,04,10,08,35,9.20
2018,04,10,08,36,9.30
2018,04,10,08,37,9.40
2018,04,10,08,38,9.40
2018,04,10,08,40,9.60
2018,04,10,08,41,9.60
2018,04,10,08,42,9.60
2018,04,10,08,43,9.70
2018,04,10,08,45,9.70
2018,04,10,08,46,9.70
2018,04,10,08,47,9.70
2018,04,10,08,48,9.70
2018,04,10,08,49,9.70
2018,04,10,08,51,9.80
2018,04,10,08,52,9.80
2018,04,10,08,53,9.80
2018,04,10,08,54,9.80
2018,04,10,08,56,9.80
2018,04,10,08,57,9.80
2018,04,10,08,58,9.90
2018,04,10,08,59,9.90
2018,04,10,09,00,9.90
2018,04,10,09,01,9.90
2018,04,10,09,02,9.90
2018,04,10,09,03,10.00
2018,04,10,09,04,10.00
2018,04,10,09,05,10.10
2018,04,10,09,07,10.10
2018,04,10,09,08,10.20
2018,04,10,09,10,10.20
2018,04,10,09,12,10.20
2018,04,10,09,13,10.20
2018,04,10,09,14,10.20
2018,04,10,09,15,10.20
2018,04,10,09,16,10.20
2018,04,10,09,17,10.30
2018,04,10,09,18,10.30
2018,04,10,09,20,10.30
2018,04,10,09,21,10.30
2018,04,10,09,22,10.30
2018,04,10,09,24,10.30
2018,04,10,09,25,10.30
2018,04,10,09,26,10.30
2018,04,10,09,27,10.40
2018,04,10,09,29,10.50
2018,04,10,09,30,10.60
2018,04,10,09,31,10.60
2018,04,10,09,32,10.70
2018,04,10,09,34,10.80
2018,04,10,09,35,10.80
2018,04,10,09,36,10.80
2018,04,10,09,37,10.80
2018,04,10,09,39,10.70
2018,04,10,09,40,10.70
2018,04,10,09,41,10.70
2018,04,10,09,43,10.70
2018,04,10,09,45,10.60
2018,04,10,09,46,10.60
2018,04,10,09,48,10.50
2018,04,10,09,49,10.50
2018,04,10,09,51,10.50
2018,04,10,09,52,10.50
2018,04,10,09,53,10.40
2018,04,10,09,54,10.40
2018,04,10,09,56,10.30
2018,04,10,09,57,10.30
2018,04,10,09,59,10.20
2018,04,10,10,01,10.20
2018,04,10,10,02,10.20
2018,04,10,10,04,10.30
2018,04,10,10,05,10.30
2018,04,10,10,06,10.30
2018,04,10,10,07,10.30
2018,04,10,10,08,10.30
2018,04,10,10,09,10.30
2018,04,10,10,10,10.40
2018,04,10,10,11,10.30
2018,04,10,10,13,10.30
2018,04,10,10,14,10.30
2018,04,10,10,15,10.30
2018,04,10,10,16,10.20
2018,04,10,10,17,10.20
2018,04,10,10,19,10.10
2018,04,10,10,20,10.10
2018,04,10,10,21,9.90
2018,04,10,10,22,9.90
2018,04,10,10,23,9.80
2018,04,10,10,24,9.80
2018,04,10,10,25,9.70
2018,04,10,10,26,9.70
2018,04,10,10,27,9.60
2018,04,10,10,28,9.60
2018,04,10,10,29,9.60
2018,04,10,10,30,9.50
2018,04,10,10,31,9.40
2018,04,10,10,33,9.40
2018,04,10,10,34,9.40
2018,04,10,10,35,9.40
2018,04,10,10,36,9.30
2018,04,10,10,37,9.30
2018,04,10,10,38,9.30
2018,04,10,10,39,9.30
2018,04,10,10,40,9.30
2018,04,10,10,42,9.20
2018,04,10,10,44,9.20
2018,04,10,10,45,9.20
2018,04,10,10,46,9.20
2018,04,10,10,47,9.20
2018,04,10,10,48,9.20
2018,04,10,10,49,9.20
2018,04,10,10,50,9.20
2018,04,10,10,51,9.30
2018,04,10,10,52,9.30
2018,04,10,10,53,9.30
2018,04,10,10,54,9.30
2018,04,10,10,55,9.30
2018,04,10,10,56,9.40
2018,04,10,10,57,9.40
2018,04,10,10,58,9.40
2018,04,10,10,59,9.40
2018,04,10,11,00,9.40
2018,04,10,11,02,9.40
2018,04,10,11,03,9.40
2018,04,10,11,04,9.40
2018,04,10,11,05,9.40
2018,04,10,11,06,9.40
2018,04,10,11,07,9.40
2018,04,10,11,08,9.40
2018,04,10,11,09,9.40
2018,04,10,11,10,9.40
2018,04,10,11,11,9.40
2018,04,10,11,13,9.50
2018,04,10,11,14,9.50
2018,04,10,11,15,9.60
2018,04,10,11,16,9.60
2018,04,10,11,17,9.60
2018,04,10,11,19,9.60
2018,04,10,11,20,9.60
2018,04,10,11,21,9.70
2018,04,10,11,22,9.70
2018,04,10,11,23,9.70
2018,04,10,11,25,9.70
2018,04,10,11,26,9.70
2018,04,10,11,28,9.80
2018,04,10,11,29,9.80
2018,04,10,11,31,9.90
2018,04,10,11,32,9.90
2018,04,10,11,33,9.90
2018,04,10,11,34,9.90
2018,04,10,11,35,10.00
2018,04,10,11,36,10.10
2018,04,10,11,37,10.10
2018,04,10,11,38,10.20
2018,04,10,11,40,10.30
2018,04,10,11,41,10.40
2018,04,10,11,42,10.40
2018,04,10,11,43,10.50
2018,04,10,11,44,10.50
2018,04,10,11,45,10.50
2018,04,10,11,46,10.60
2018,04,10,11,48,10.50
2018,04,10,11,49,10.50
2018,04,10,11,50,10.40
2018,04,10,11,52,10.40
2018,04,10,11,54,10.30
2018,04,10,11,55,10.30
2018,04,10,11,56,10.30
2018,04,10,11,58,10.20
2018,04,10,11,59,10.20
2018,04,10,12,00,10.10
2018,04,10,12,02,10.10
2018,04,10,12,03,10.10
2018,04,10,12,04,10.00
2018,04,10,12,06,10.00
2018,04,10,12,07,10.00
2018,04,10,12,08,10.10
2018,04,10,12,09,10.10
2018,04,10,12,10,10.10
2018,04,10,12,11,10.20
2018,04,10,12,12,10.20
2018,04,10,12,13,10.30
2018,04,10,12,15,10.30
2018,04,10,12,16,10.30
2018,04,10,12,18,10.20
2018,04,10,12,19,10.20
2018,04,10,12,20,10.10
2018,04,10,12,21,10.10
2018,04,10,12,22,10.00
2018,04,10,12,23,9.90
2018,04,10,12,25,9.80
2018,04,10,12,27,9.60
2018,04,10,12,28,9.40
2018,04,10,12,29,9.40
2018,04,10,12,31,9.30
2018,04,10,12,32,9.20
2018,04,10,12,34,9.20
2018,04,10,12,36,9.20
2018,04,10,12,37,9.20
2018,04,10,12,38,9.20
2018,04,10,12,39,9.20
2018,04,10,12,40,9.20
2018,04,10,12,41,9.30
2018,04,10,12,42,9.30
2018,04,10,12,44,9.40
2018,04,10,12,45,9.50
2018,04,10,12,46,9.60
2018,04,10,12,47,9.70
2018,04,10,12,49,9.80
2018,04,10,12,51,9.90
2018,04,10,12,52,10.00
2018,04,10,12,53,10.10
2018,04,10,12,55,10.20
2018,04,10,12,56,10.30
2018,04,10,12,57,10.30
2018,04,10,12,59,10.40
2018,04,10,13,00,10.60
2018,04,10,13,02,10.70
2018,04,10,13,03,10.80
2018,04,10,13,04,10.80
2018,04,10,13,05,10.90
2018,04,10,13,07,10.90
2018,04,10,13,08,10.90
2018,04,10,13,09,10.80
2018,04,10,13,10,10.80
2018,04,10,13,12,10.80
2018,04,10,13,13,10.80
2018,04,10,13,14,10.80
2018,04,10,13,15,10.80
2018,04,10,13,16,10.70
2018,04,10,13,17,10.70
2018,04,10,13,18,10.70
2018,04,10,13,20,10.60
2018,04,10,13,21,10.60
2018,04,10,13,22,10.60
2018,04,10,13,23,10.60
2018,04,10,13,25,10.50
2018,04,10,13,26,10.50
2018,04,10,13,27,10.40
2018,04,10,13,28,10.30
2018,04,10,13,29,10.20
2018,04,10,13,31,9.90
2018,04,10,13,32,9.70
2018,04,10,13,34,9.40
2018,04,10,13,35,9.30
2018,04,10,13,36,9.20
2018,04,10,13,38,8.90
2018,04,10,13,40,8.70
2018,04,10,13,41,8.60
2018,04,10,13,43,8.40
2018,04,10,13,44,8.30
2018,04,10,13,45,8.20
2018,04,10,13,46,8.10
2018,04,10,13,47,8.10
2018,04,10,13,49,7.90
2018,04,10,13,50,7.90
2018,04,10,13,51,7.90
2018,04,10,13,53,7.80
2018,04,10,13,54,7.80
2018,04,10,13,56,7.70
2018,04,10,13,57,7.70
2018,04,10,13,58,7.70
2018,04,10,13,59,7.60
2018,04,10,14,00,7.70
2018,04,10,14,01,7.60
2018,04,10,14,02,7.70
2018,04,10,14,03,7.70
2018,04,10,14,04,7.70
2018,04,10,14,05,7.80
2018,04,10,14,06,7.80
2018,04,10,14,07,7.80
2018,04,10,14,08,7.80
2018,04,10,14,09,7.90
2018,04,10,14,10,7.90
2018,04,10,14,11,7.90
2018,04,10,14,13,8.10
2018,04,10,14,15,8.20
2018,04,10,14,16,8.20
2018,04,10,14,17,8.20
2018,04,10,14,18,8.30
2018,04,10,14,20,8.30
2018,04,10,14,21,8.40
2018,04,10,14,22,8.50
2018,04,10,14,23,8.60
2018,04,10,14,24,8.70
2018,04,10,14,25,8.90
2018,04,10,14,27,9.10
2018,04,10,14,28,9.20
2018,04,10,14,29,9.50
2018,04,10,14,31,9.60
2018,04,10,14,32,9.60
2018,04,10,14,34,9.70
2018,04,10,14,35,9.70
2018,04,10,14,36,9.70
2018,04,10,14,37,9.70
2018,04,10,14,39,9.60
2018,04,10,14,41,9.50
2018,04,10,14,42,9.50
2018,04,10,14,43,9.40
2018,04,10,14,45,9.40
2018,04,10,14,46,9.40
2018,04,10,14,47,9.40
2018,04,10,14,48,9.40
2018,04,10,14,50,9.30
2018,04,10,14,51,9.30
2018,04,10,14,52,9.30
2018,04,10,14,53,9.30
2018,04,10,14,54,9.30
2018,04,10,14,55,9.20
2018,04,10,14,56,9.20
2018,04,10,14,57,9.20
2018,04,10,14,59,9.20
2018,04,10,15,01,9.10
2018,04,10,15,02,9.10
2018,04,10,15,04,9.00
2018,04,10,15,06,8.90
2018,04,10,15,07,8.90
2018,04,10,15,09,8.80
2018,04,10,15,10,8.80
2018,04,10,15,11,8.80
2018,04,10,15,13,8.80
2018,04,10,15,14,8.80
2018,04,10,15,15,8.80
2018,04,10,15,16,8.80
2018,04,10,15,18,8.80
2018,04,10,15,20,8.80
2018,04,10,15,21,8.80
2018,04,10,15,22,8.80
2018,04,10,15,23,8.80
2018,04,10,15,24,8.90
2018,04,10,15,26,8.90
2018,04,10,15,27,9.00
2018,04,10,15,29,9.10
2018,04,10,15,30,9.10
2018,04,10,15,31,9.20
2018,04,10,15,33,9.20
2018,04,10,15,34,9.30
2018,04,10,15,35,9.30
2018,04,10,15,36,9.30
2018,04,10,15,38,9.30
2018,04,10,15,39,9.30
2018,04,10,15,40,9.30
2018,04,10,15,43,9.30
2018,04,10,15,45,9.30
2018,04,10,15,47,9.30
2018,04,10,15,49,9.30
2018,04,10,15,51,9.30
2018,04,10,15,52,9.30
2018,04,10,15,53,9.40
2018,04,10,15,55,9.30
2018,04,10,15,56,9.30
2018,04,10,15,57,9.30
2018,04,10,15,59,9.20
2018,04,10,16,00,9.20
2018,04,10,16,01,9.20
2018,04,10,16,03,9.30
2018,04,10,16,05,9.30
2018,04,10,16,06,9.30
2018,04,10,16,08,9.30
2018,04,10,16,10,9.30
2018,04,10,16,11,9.40
2018,04,10,16,12,9.40
2018,04,10,16,13,9.40
2018,04,10,16,14,9.50
2018,04,10,16,15,9.60
2018,04,10,16,17,9.70
2018,04,10,16,18,9.70
2018,04,10,16,20,9.80
2018,04,10,16,21,9.80
2018,04,10,16,23,9.80
2018,04,10,16,25,9.80
2018,04,10,16,26,9.80
2018,04,10,16,27,9.90
2018,04,10,16,29,9.90
2018,04,10,16,31,9.80
2018,04,10,16,32,9.80
2018,04,10,16,34,9.80
2018,04,10,16,35,9.80
2018,04,10,16,37,9.80
2018,04,10,16,39,9.80
2018,04,10,16,40,9.90
2018,04,10,16,42,9.90
2018,04,10,16,43,9.90
2018,04,10,16,45,10.00
2018,04,10,16,46,10.00
2018,04,10,16,47,10.00
2018,04,10,16,49,10.00
2018,04,10,16,50,10.00
2018,04,10,16,52,10.00
2018,04,10,16,53,10.00
2018,04,10,16,55,10.10
2018,04,10,16,57,10.10
2018,04,10,16,58,10.00
2018,04,10,17,00,10.00
2018,04,10,17,01,9.90
2018,04,10,17,03,9.80
2018,04,10,17,05,9.60
2018,04,10,17,06,9.40
2018,04,10,17,07,9.40
2018,04,10,17,10,9.30
2018,04,10,17,12,9.10
2018,04,10,17,15,9.00
2018,04,10,17,16,8.90
2018,04,10,17,17,8.90
2018,04,10,17,19,8.90
2018,04,10,17,22,8.80
2018,04,10,17,23,8.80
2018,04,10,17,25,8.80
2018,04,10,17,26,8.80
2018,04,10,17,28,8.80
2018,04,10,17,30,8.90
2018,04,10,17,33,8.90
2018,04,10,17,35,8.90
2018,04,10,17,36,8.90
2018,04,10,17,37,8.90
2018,04,10,17,38,8.90
2018,04,10,17,40,8.90
2018,04,10,17,41,8.90
2018,04,10,17,42,8.90
2018,04,10,17,44,9.00
2018,04,10,17,45,9.00
2018,04,10,17,46,9.00
2018,04,10,17,49,9.00
2018,04,10,17,50,8.90
2018,04,10,17,51,8.90
2018,04,10,17,53,8.90
2018,04,10,17,54,8.90
2018,04,10,17,56,8.90
2018,04,10,17,57,8.90
2018,04,10,17,59,8.90
2018,04,10,18,01,8.80
2018,04,10,18,02,8.90
2018,04,10,18,04,8.80
2018,04,10,18,06,8.80
2018,04,10,18,07,8.80
2018,04,10,18,09,8.80
2018,04,10,18,10,8.80
2018,04,10,18,11,8.70
2018,04,10,18,13,8.70
2018,04,10,18,14,8.70
2018,04,10,18,16,8.60
2018,04,10,18,18,8.60
2018,04,10,18,19,8.50
2018,04,10,18,21,8.50
2018,04,10,18,22,8.50
2018,04,10,18,23,8.50
2018,04,10,18,25,8.60
2018,04,10,18,26,8.60
2018,04,10,18,27,8.60
2018,04,10,18,28,8.60
2018,04,10,18,30,8.60
2018,04,10,18,31,8.70
2018,04,10,18,32,8.70
2018,04,10,18,35,8.70
2018,04,10,18,36,8.70
2018,04,10,18,39,8.70
2018,04,10,18,40,8.70
2018,04,10,18,42,8.70
2018,04,10,18,43,8.60
2018,04,10,18,44,8.60
2018,04,10,18,46,8.60
2018,04,10,18,47,8.60
2018,04,10,18,49,8.60
2018,04,10,18,50,8.60
2018,04,10,18,51,8.60
2018,04,10,18,52,8.60
2018,04,10,18,54,8.60
2018,04,10,18,55,8.60
2018,04,10,18,56,8.60
2018,04,10,18,58,8.60
2018,04,10,18,59,8.60
2018,04,10,19,00,8.60
2018,04,10,19,03,8.70
2018,04,10,19,04,8.80
2018,04,10,19,06,8.80
2018,04,10,19,07,8.80
2018,04,10,19,08,8.70
2018,04,10,19,10,8.70
2018,04,10,19,11,8.70
2018,04,10,19,13,8.70
2018,04,10,19,14,8.70
2018,04,10,19,16,8.70
2018,04,10,19,17,8.70
2018,04,10,19,19,8.70
2018,04,10,19,20,8.70
2018,04,10,19,21,8.70
2018,04,10,19,23,8.70
2018,04,10,19,24,8.70
2018,04,10,19,25,8.70
2018,04,10,19,26,8.70
2018,04,10,19,27,8.70
2018,04,10,19,28,8.70
2018,04,10,19,30,8.70
2018,04,10,19,32,8.70
2018,04,10,19,33,8.70
2018,04,10,19,34,8.60
2018,04,10,19,36,8.60
2018,04,10,19,37,8.70
2018,04,10,19,38,8.70
2018,04,10,19,39,8.60
2018,04,10,19,41,8.60
2018,04,10,19,42,8.60
2018,04,10,19,43,8.60
2018,04,10,19,45,8.60
2018,04,10,19,48,8.70
2018,04,10,19,49,8.60
2018,04,10,19,51,8.70
2018,04,10,19,52,8.70
2018,04,10,19,53,8.60
2018,04,10,19,55,8.60
2018,04,10,19,56,8.60
2018,04,10,19,57,8.70
2018,04,10,19,59,8.70
2018,04,10,20,01,8.70
2018,04,10,20,03,8.70
2018,04,10,20,04,8.70
2018,04,10,20,06,8.70
2018,04,10,20,07,8.70
2018,04,10,20,09,8.60
2018,04,10,20,10,8.60
2018,04,10,20,13,8.60
2018,04,10,20,14,8.60
2018,04,10,20,16,8.60
2018,04,10,20,17,8.60
2018,04,10,20,18,8.60
2018,04,10,20,20,8.60
2018,04,10,20,21,8.60
2018,04,10,20,22,8.60
2018,04,10,20,23,8.60
2018,04,10,20,25,8.60
2018,04,10,20,26,8.60
2018,04,10,20,28,8.60
2018,04,10,20,29,8.70
2018,04,10,20,30,8.70
2018,04,10,20,33,8.70
2018,04,10,20,34,8.70
2018,04,10,20,35,8.70
2018,04,10,20,36,8.70
2018,04,10,20,37,8.70
2018,04,10,20,38,8.70
2018,04,10,20,41,8.70
2018,04,10,20,42,8.70
2018,04,10,20,44,8.60
2018,04,10,20,45,8.60
2018,04,10,20,46,8.60
2018,04,10,20,48,8.50
2018,04,10,20,50,8.40
2018,04,10,20,51,8.40
2018,04,10,20,52,8.30
2018,04,10,20,53,8.30
2018,04,10,20,55,8.20
2018,04,10,20,56,8.20
2018,04,10,20,57,8.20
2018,04,10,20,58,8.10
2018,04,10,20,59,8.10
2018,04,10,21,00,8.10
2018,04,10,21,01,8.00
2018,04,10,21,03,8.00
2018,04,10,21,04,7.90
2018,04,10,21,05,7.90
2018,04,10,21,06,7.90
2018,04,10,21,08,7.90
2018,04,10,21,10,7.90
2018,04,10,21,11,7.80
2018,04,10,21,12,7.80
2018,04,10,21,14,7.80
2018,04,10,21,15,7.80
2018,04,10,21,17,7.80
2018,04,10,21,19,7.80
2018,04,10,21,20,7.80
2018,04,10,21,21,7.80
2018,04,10,21,23,7.80
2018,04,10,21,24,7.80
2018,04,10,21,25,7.80
2018,04,10,21,27,7.80
2018,04,10,21,28,7.70
2018,04,10,21,29,7.70
2018,04,10,21,31,7.70
2018,04,10,21,32,7.70
2018,04,10,21,34,7.70
2018,04,10,21,35,7.80
2018,04,10,21,36,7.70
2018,04,10,21,37,7.70
2018,04,10,21,38,7.70
2018,04,10,21,39,7.70
2018,04,10,21,40,7.70
2018,04,10,21,41,7.70
2018,04,10,21,43,7.70
2018,04,10,21,44,7.70
2018,04,10,21,45,7.70
2018,04,10,21,46,7.70
2018,04,10,21,47,7.70
2018,04,10,21,48,7.70
2018,04,10,21,49,7.70
2018,04,10,21,51,7.60
2018,04,10,21,52,7.60
2018,04,10,21,53,7.60
2018,04,10,21,54,7.60
2018,04,10,21,56,7.60
2018,04,10,21,57,7.60
2018,04,10,21,58,7.60
2018,04,10,22,00,7.60
2018,04,10,22,02,7.60
2018,04,10,22,03,7.60
2018,04,10,22,05,7.60
2018,04,10,22,06,7.60
2018,04,10,22,08,7.60
2018,04,10,22,10,7.60
2018,04,10,22,11,7.60
2018,04,10,22,12,7.60
2018,04,10,22,13,7.60
2018,04,10,22,14,7.60
2018,04,10,22,16,7.50
2018,04,10,22,18,7.50
2018,04,10,22,19,7.50
2018,04,10,22,21,7.40
2018,04,10,22,22,7.40
2018,04,10,22,23,7.40
2018,04,10,22,24,7.40
2018,04,10,22,25,7.40
2018,04,10,22,26,7.40
2018,04,10,22,27,7.40
2018,04,10,22,28,7.40
2018,04,10,22,29,7.40
2018,04,10,22,31,7.40
2018,04,10,22,32,7.40
2018,04,10,22,34,7.40
2018,04,10,22,35,7.40
2018,04,10,22,36,7.40
2018,04,10,22,37,7.40
2018,04,10,22,39,7.40
2018,04,10,22,41,7.40
2018,04,10,22,43,7.40
2018,04,10,22,44,7.40
2018,04,10,22,45,7.40
2018,04,10,22,46,7.40
2018,04,10,22,47,7.30
2018,04,10,22,48,7.30
2018,04,10,22,50,7.30
2018,04,10,22,51,7.30
2018,04,10,22,53,7.30
2018,04,10,22,55,7.30
2018,04,10,22,56,7.30
2018,04,10,22,57,7.30
2018,04,10,22,58,7.30
2018,04,10,23,00,7.20
2018,04,10,23,01,7.20
2018,04,10,23,02,7.20
2018,04,10,23,03,7.20
2018,04,10,23,05,7.20
2018,04,10,23,06,7.20
2018,04,10,23,08,7.20
2018,04,10,23,09,7.20
2018,04,10,23,11,7.20
2018,04,10,23,12,7.10
2018,04,10,23,13,7.20
2018,04,10,23,14,7.10
2018,04,10,23,16,7.10
2018,04,10,23,18,7.10
2018,04,10,23,19,7.10
2018,04,10,23,20,7.10
2018,04,10,23,21,7.10
2018,04,10,23,23,7.10
2018,04,10,23,24,7.10
2018,04,10,23,25,7.00
2018,04,10,23,27,6.90
2018,04,10,23,28,6.90
2018,04,10,23,29,6.90
2018,04,10,23,30,6.90
2018,04,10,23,32,6.80
2018,04,10,23,33,6.80
2018,04,10,23,34,6.80
2018,04,10,23,35,6.80
2018,04,10,23,36,6.80
2018,04,10,23,38,6.80
2018,04,10,23,39,6.80
2018,04,10,23,40,6.80
2018,04,10,23,41,6.80
2018,04,10,23,42,6.80
2018,04,10,23,43,6.70
2018,04,10,23,44,6.70
2018,04,10,23,45,6.70
2018,04,10,23,46,6.70
2018,04,10,23,47,6.70